| time (UTC) | temp F | wind direction | speed MPH | gust MPH | rain 1hr in | rain 24hr in | rain mn in | humidity % | barometer mb |
| 20260507090256 | 51 | 242 | 0.0 | 0.0 | 0.00 | 0.00 | 0.00 | 99 | 1019.4 |
| 20260507085753 | 51 | 269 | 0.0 | 4.0 | 0.00 | 0.00 | 0.00 | 99 | 1019.3 |
| 20260507085249 | 51 | 270 | 1.0 | 1.0 | 0.00 | 0.00 | 0.00 | 99 | 1019.3 |
| 20260507084747 | 51 | 253 | 0.0 | 0.0 | 0.00 | 0.00 | 0.00 | 99 | 1019.4 |
| 20260507084243 | 51 | 253 | 0.0 | 1.0 | 0.00 | 0.00 | 0.00 | 99 | 1019.4 |
| 20260507083741 | 51 | 245 | 3.0 | 4.0 | 0.00 | 0.00 | 0.00 | 99 | 1019.3 |
| 20260507083237 | 51 | 256 | 1.0 | 4.0 | 0.00 | 0.00 | 0.00 | 99 | 1019.5 |
| 20260507082733 | 51 | 258 | 0.0 | 3.0 | 0.00 | 0.00 | 0.00 | 99 | 1019.3 |
| 20260507082229 | 51 | 264 | 0.0 | 0.0 | 0.00 | 0.00 | 0.00 | 99 | 1019.4 |
| 20260507081726 | 51 | 259 | 0.0 | 0.0 | 0.00 | 0.00 | 0.00 | 99 | 1019.4 |
| 20260507081222 | 51 | 263 | 0.0 | 0.0 | 0.00 | 0.00 | 0.00 | 99 | 1019.3 |
| 20260507080719 | 51 | 250 | 0.0 | 0.0 | 0.00 | 0.00 | 0.00 | 99 | 1019.5 |
| 20260507080215 | 51 | 266 | 0.0 | 0.0 | 0.00 | 0.00 | 0.00 | 99 | 1019.5 |
| 20260507075711 | 51 | 266 | 0.0 | 0.0 | 0.00 | 0.00 | 0.00 | 99 | 1019.5 |
| 20260507075207 | 51 | 255 | 0.0 | 0.0 | 0.00 | 0.00 | 0.00 | 99 | 1019.6 |
| 20260507074703 | 51 | 243 | 0.0 | 0.0 | 0.00 | 0.00 | 0.00 | 99 | 1019.5 |
| 20260507074202 | 51 | 272 | 2.0 | 3.0 | 0.00 | 0.00 | 0.00 | 99 | 1019.5 |
| 20260507073658 | 51 | 222 | 0.0 | 0.0 | 0.00 | 0.00 | 0.00 | 99 | 1019.4 |
| 20260507073154 | 51 | 259 | 1.0 | 3.0 | 0.00 | 0.00 | 0.00 | 99 | 1019.5 |
| 20260507072653 | 51 | 193 | 3.0 | 4.0 | 0.00 | 0.00 | 0.00 | 99 | 1019.5 |
| 20260507072150 | 51 | 235 | 0.0 | 0.0 | 0.00 | 0.00 | 0.00 | 99 | 1019.3 |
| 20260507071648 | 51 | 258 | 0.0 | 4.0 | 0.00 | 0.00 | 0.00 | 99 | 1019.5 |
| 20260507071144 | 51 | 258 | 0.0 | 3.0 | 0.00 | 0.00 | 0.00 | 99 | 1019.4 |
| 20260507070641 | 51 | 238 | 0.0 | 3.0 | 0.00 | 0.00 | 0.00 | 99 | 1019.4 |
| 20260507070137 | 51 | 244 | 3.0 | 4.0 | 0.00 | 0.00 | 0.00 | 99 | 1019.4 |
| 20260507065633 | 51 | 218 | 2.0 | 3.0 | 0.00 | 0.00 | 0.00 | 99 | 1019.3 |
| 20260507065130 | 51 | 249 | 1.0 | 1.0 | 0.00 | 0.00 | 0.00 | 99 | 1019.3 |
| 20260507064628 | 51 | 229 | 0.0 | 5.0 | 0.00 | 0.00 | 0.00 | 99 | 1019.3 |
| 20260507064127 | 51 | 265 | 0.0 | 3.0 | 0.00 | 0.00 | 0.00 | 99 | 1019.2 |
| 20260507063624 | 51 | 254 | 0.0 | 3.0 | 0.00 | 0.00 | 0.00 | 99 | 1019.2 |
| 20260507063121 | 51 | 230 | 0.0 | 1.0 | 0.00 | 0.00 | 0.00 | 99 | 1019.2 |
| 20260507062617 | 51 | 246 | 3.0 | 4.0 | 0.00 | 0.00 | 0.00 | 99 | 1019.2 |
| 20260507062115 | 51 | 223 | 2.0 | 7.0 | 0.00 | 0.00 | 0.00 | 99 | 1019.3 |
| 20260507061613 | 51 | 193 | 0.0 | 4.0 | 0.00 | 0.00 | 0.00 | 98 | 1019.2 |
| 20260507061111 | 51 | 255 | 3.0 | 5.0 | 0.00 | 0.00 | 0.00 | 98 | 1019.3 |
| 20260507060608 | 52 | 256 | 2.0 | 4.0 | 0.00 | 0.00 | 0.00 | 98 | 1019.3 |
| 20260507060104 | 52 | 259 | 0.0 | 4.0 | 0.00 | 0.00 | 0.00 | 98 | 1019.3 |
| 20260507055559 | 52 | 252 | 1.0 | 3.0 | 0.00 | 0.00 | 0.00 | 98 | 1019.2 |
| 20260507055056 | 52 | 280 | 3.0 | 7.0 | 0.00 | 0.00 | 0.00 | 98 | 1019.1 |
| 20260507054552 | 52 | 237 | 2.0 | 5.0 | 0.00 | 0.00 | 0.00 | 98 | 1019.1 |
| 20260507054049 | 52 | 205 | 0.0 | 7.0 | 0.00 | 0.00 | 0.00 | 98 | 1019.0 |
| 20260507053547 | 52 | 256 | 2.0 | 5.0 | 0.00 | 0.00 | 0.00 | 98 | 1019.0 |
| 20260507053046 | 52 | 234 | 1.0 | 7.0 | 0.00 | 0.00 | 0.00 | 97 | 1019.2 |
| 20260507052543 | 52 | 246 | 3.0 | 4.0 | 0.00 | 0.00 | 0.00 | 97 | 1019.1 |
| 20260507052039 | 52 | 244 | 0.0 | 4.0 | 0.00 | 0.00 | 0.00 | 97 | 1019.1 |
| 20260507051537 | 52 | 261 | 1.0 | 3.0 | 0.00 | 0.00 | 0.00 | 97 | 1019.2 |
| 20260507051034 | 52 | 242 | 1.0 | 3.0 | 0.00 | 0.00 | 0.00 | 97 | 1019.2 |
| 20260507050530 | 52 | 246 | 2.0 | 7.0 | 0.00 | 0.00 | 0.00 | 97 | 1019.1 |
| 20260507050027 | 52 | 266 | 2.0 | 4.0 | 0.00 | 0.00 | 0.00 | 97 | 1019.2 |
| 20260507045523 | 52 | 251 | 1.0 | 3.0 | 0.00 | 0.00 | 0.00 | 97 | 1019.2 |
| 20260507045021 | 53 | 240 | 1.0 | 3.0 | 0.00 | 0.00 | 0.00 | 97 | 1019.2 |
| 20260507044518 | 53 | 259 | 4.0 | 5.0 | 0.00 | 0.00 | 0.00 | 97 | 1019.2 |
| 20260507044014 | 53 | 214 | 0.0 | 3.0 | 0.00 | 0.00 | 0.00 | 97 | 1019.1 |
| 20260507043510 | 53 | 158 | 1.0 | 5.0 | 0.00 | 0.00 | 0.00 | 96 | 1019.0 |
| 20260507043008 | 53 | 264 | 1.0 | 1.0 | 0.00 | 0.00 | 0.00 | 96 | 1019.0 |
| 20260507042503 | 53 | 205 | 0.0 | 1.0 | 0.00 | 0.00 | 0.00 | 96 | 1019.0 |
| 20260507041959 | 53 | 258 | 2.0 | 3.0 | 0.00 | 0.00 | 0.00 | 96 | 1019.0 |
| 20260507041456 | 53 | 226 | 1.0 | 5.0 | 0.00 | 0.00 | 0.00 | 96 | 1019.0 |
| 20260507040953 | 53 | 253 | 0.0 | 3.0 | 0.00 | 0.00 | 0.00 | 96 | 1019.0 |
| 20260507040449 | 53 | 244 | 0.0 | 3.0 | 0.00 | 0.00 | 0.00 | 96 | 1019.0 |
| 20260507035945 | 53 | 246 | 0.0 | 1.0 | 0.00 | 0.00 | 0.00 | 96 | 1019.0 |
| 20260507035442 | 53 | 279 | 3.0 | 5.0 | 0.00 | 0.00 | 0.00 | 96 | 1019.0 |
| 20260507034938 | 53 | 252 | 1.0 | 5.0 | 0.00 | 0.00 | 0.00 | 96 | 1019.1 |
| 20260507034435 | 53 | 283 | 2.0 | 4.0 | 0.00 | 0.00 | 0.00 | 96 | 1019.1 |
| 20260507033934 | 53 | 242 | 1.0 | 4.0 | 0.00 | 0.00 | 0.00 | 96 | 1019.0 |
| 20260507033431 | 53 | 178 | 1.0 | 3.0 | 0.00 | 0.00 | 0.00 | 96 | 1019.0 |
| 20260507032928 | 53 | 258 | 0.0 | 4.0 | 0.00 | 0.00 | 0.00 | 95 | 1019.0 |
| 20260507032425 | 53 | 245 | 1.0 | 4.0 | 0.00 | 0.00 | 0.00 | 95 | 1019.1 |
| 20260507031921 | 54 | 234 | 1.0 | 3.0 | 0.00 | 0.00 | 0.00 | 94 | 1019.1 |
| 20260507031417 | 54 | 219 | 1.0 | 3.0 | 0.00 | 0.00 | 0.00 | 93 | 1019.0 |
| 20260507030914 | 55 | 285 | 0.0 | 4.0 | 0.00 | 0.00 | 0.00 | 93 | 1019.0 |
| 20260507030412 | 55 | 260 | 0.0 | 1.0 | 0.00 | 0.00 | 0.00 | 91 | 1019.0 |
| 20260507025908 | 56 | 250 | 0.0 | 0.0 | 0.00 | 0.00 | 0.00 | 90 | 1019.0 |
| 20260507025406 | 56 | 265 | 0.0 | 1.0 | 0.00 | 0.00 | 0.00 | 90 | 1018.9 |
| 20260507024904 | 56 | 239 | 0.0 | 5.0 | 0.00 | 0.00 | 0.00 | 89 | 1018.9 |
| 20260507024400 | 57 | 243 | 1.0 | 4.0 | 0.00 | 0.00 | 0.00 | 88 | 1018.8 |
| 20260507023856 | 57 | 261 | 0.0 | 1.0 | 0.00 | 0.00 | 0.00 | 88 | 1018.8 |
| 20260507023353 | 58 | 236 | 1.0 | 4.0 | 0.00 | 0.00 | 0.00 | 87 | 1018.7 |
| 20260507022851 | 58 | 230 | 3.0 | 4.0 | 0.00 | 0.00 | 0.00 | 86 | 1018.6 |
| 20260507022347 | 59 | 227 | 2.0 | 5.0 | 0.00 | 0.00 | 0.00 | 86 | 1018.7 |
| 20260507021843 | 60 | 247 | 1.0 | 3.0 | 0.00 | 0.00 | 0.00 | 83 | 1018.7 |
| 20260507021338 | 60 | 244 | 1.0 | 4.0 | 0.00 | 0.00 | 0.00 | 83 | 1018.7 |
| 20260507020837 | 60 | 262 | 0.0 | 3.0 | 0.00 | 0.00 | 0.00 | 83 | 1018.9 |
| 20260507020333 | 61 | 252 | 3.0 | 7.0 | 0.00 | 0.00 | 0.00 | 82 | 1018.8 |
| 20260507015830 | 61 | 267 | 1.0 | 5.0 | 0.00 | 0.00 | 0.00 | 82 | 1019.0 |
| 20260507015328 | 62 | 156 | 0.0 | 1.0 | 0.00 | 0.00 | 0.00 | 80 | 1018.9 |
| 20260507014825 | 62 | 237 | 3.0 | 5.0 | 0.00 | 0.00 | 0.00 | 80 | 1018.9 |
| 20260507014321 | 64 | 251 | 1.0 | 3.0 | 0.00 | 0.00 | 0.00 | 77 | 1018.9 |
| 20260507013818 | 63 | 265 | 4.0 | 4.0 | 0.00 | 0.00 | 0.00 | 77 | 1018.9 |
| 20260507013315 | 64 | 232 | 2.0 | 3.0 | 0.00 | 0.00 | 0.00 | 77 | 1018.9 |
| 20260507012813 | 64 | 244 | 0.0 | 3.0 | 0.00 | 0.00 | 0.00 | 77 | 1018.9 |
| 20260507012308 | 65 | 236 | 3.0 | 4.0 | 0.00 | 0.00 | 0.00 | 76 | 1019.0 |
| 20260507011806 | 65 | 244 | 2.0 | 3.0 | 0.00 | 0.00 | 0.00 | 75 | 1019.0 |
| 20260507011302 | 65 | 238 | 0.0 | 1.0 | 0.00 | 0.00 | 0.00 | 76 | 1019.1 |
| 20260507010801 | 63 | 271 | 3.0 | 10.0 | 0.00 | 0.00 | 0.00 | 79 | 1019.1 |
| 20260507010258 | 63 | 245 | 8.0 | 12.0 | 0.00 | 0.00 | 0.00 | 79 | 1019.0 |
| 20260507005755 | 63 | 257 | 4.0 | 10.0 | 0.00 | 0.00 | 0.00 | 79 | 1019.0 |
| 20260507005251 | 63 | 247 | 10.0 | 12.0 | 0.00 | 0.00 | 0.00 | 78 | 1018.9 |
| 20260507004748 | 66 | 248 | 4.0 | 8.0 | 0.00 | 0.00 | 0.00 | 75 | 1019.0 |
| 20260507004246 | 64 | 244 | 2.0 | 4.0 | 0.00 | 0.00 | 0.00 | 77 | 1018.9 |
| 20260507003742 | 65 | 264 | 6.0 | 7.0 | 0.00 | 0.00 | 0.00 | 76 | 1018.9 |
| 20260507003237 | 64 | 273 | 8.0 | 10.0 | 0.00 | 0.00 | 0.00 | 75 | 1018.9 |
| 20260507002734 | 64 | 248 | 8.0 | 11.0 | 0.00 | 0.00 | 0.00 | 78 | 1018.9 |
| 20260507002230 | 64 | 244 | 10.0 | 12.0 | 0.00 | 0.00 | 0.00 | 77 | 1019.0 |
| 20260507001727 | 65 | 264 | 8.0 | 10.0 | 0.00 | 0.00 | 0.00 | 75 | 1019.0 |
| 20260507001224 | 64 | 267 | 4.0 | 12.0 | 0.00 | 0.00 | 0.00 | 78 | 1019.0 |
| 20260507000720 | 65 | 260 | 6.0 | 8.0 | 0.00 | 0.00 | 0.00 | 75 | 1018.9 |
| 20260507000216 | 65 | 275 | 7.0 | 8.0 | 0.00 | 0.00 | 0.00 | 75 | 1018.9 |
| 20260506235713 | 65 | 233 | 5.0 | 14.0 | 0.00 | 0.00 | 0.00 | 77 | 1018.9 |
| 20260506235208 | 65 | 257 | 9.0 | 14.0 | 0.00 | 0.00 | 0.00 | 75 | 1019.0 |
| 20260506234706 | 66 | 247 | 2.0 | 7.0 | 0.00 | 0.00 | 0.00 | 77 | 1019.0 |
| 20260506234203 | 66 | 242 | 3.0 | 11.0 | 0.00 | 0.00 | 0.00 | 77 | 1019.0 |
| 20260506233700 | 66 | 247 | 10.0 | 12.0 | 0.00 | 0.00 | 0.00 | 75 | 1019.0 |
| 20260506233157 | 66 | 250 | 9.0 | 11.0 | 0.00 | 0.00 | 0.00 | 75 | 1019.1 |
| 20260506232653 | 66 | 267 | 3.0 | 8.0 | 0.00 | 0.00 | 0.00 | 75 | 1019.0 |
| 20260506232148 | 69 | 235 | 5.0 | 7.0 | 0.00 | 0.00 | 0.00 | 70 | 1018.9 |
| 20260506231646 | 68 | 258 | 5.0 | 8.0 | 0.00 | 0.00 | 0.00 | 73 | 1019.0 |
| 20260506231144 | 67 | 238 | 8.0 | 10.0 | 0.00 | 0.00 | 0.00 | 74 | 1019.2 |
| 20260506230641 | 67 | 270 | 4.0 | 10.0 | 0.00 | 0.00 | 0.00 | 75 | 1019.2 |
| 20260506230137 | 68 | 254 | 8.0 | 10.0 | 0.00 | 0.00 | 0.00 | 73 | 1019.2 |
| 20260506225634 | 68 | 251 | 4.0 | 12.0 | 0.00 | 0.00 | 0.00 | 74 | 1019.2 |
| 20260506225131 | 68 | 259 | 8.0 | 12.0 | 0.00 | 0.00 | 0.00 | 74 | 1019.3 |
| 20260506224627 | 68 | 245 | 5.0 | 8.0 | 0.00 | 0.00 | 0.00 | 74 | 1019.2 |
| 20260506224124 | 68 | 250 | 5.0 | 11.0 | 0.00 | 0.00 | 0.00 | 74 | 1019.3 |
| 20260506223620 | 67 | 250 | 5.0 | 10.0 | 0.00 | 0.00 | 0.00 | 75 | 1019.4 |
| 20260506223116 | 68 | 255 | 5.0 | 10.0 | 0.00 | 0.00 | 0.00 | 73 | 1019.5 |
| 20260506222614 | 70 | 251 | 2.0 | 4.0 | 0.00 | 0.00 | 0.00 | 73 | 1019.7 |
| 20260506222109 | 68 | 255 | 5.0 | 5.0 | 0.00 | 0.00 | 0.00 | 74 | 1019.6 |
| 20260506221608 | 68 | 247 | 5.0 | 8.0 | 0.00 | 0.00 | 0.00 | 73 | 1019.7 |
| 20260506221106 | 67 | 247 | 3.0 | 11.0 | 0.00 | 0.00 | 0.00 | 77 | 1019.6 |
| 20260506220601 | 68 | 241 | 3.0 | 8.0 | 0.00 | 0.00 | 0.00 | 75 | 1019.6 |
| 20260506220057 | 69 | 249 | 2.0 | 11.0 | 0.00 | 0.00 | 0.00 | 73 | 1019.6 |
| 20260506215554 | 68 | 240 | 7.0 | 8.0 | 0.00 | 0.00 | 0.00 | 73 | 1019.7 |
| 20260506215049 | 69 | 261 | 7.0 | 11.0 | 0.00 | 0.00 | 0.00 | 75 | 1019.7 |
| 20260506214546 | 69 | 259 | 5.0 | 7.0 | 0.00 | 0.00 | 0.00 | 73 | 1019.8 |
| 20260506214043 | 68 | 262 | 5.0 | 8.0 | 0.00 | 0.00 | 0.00 | 75 | 1019.8 |
| 20260506213542 | 68 | 245 | 6.0 | 11.0 | 0.00 | 0.00 | 0.00 | 75 | 1019.8 |
| 20260506213039 | 70 | 237 | 8.0 | 12.0 | 0.00 | 0.00 | 0.00 | 72 | 1019.8 |
| 20260506212535 | 68 | 257 | 2.0 | 7.0 | 0.00 | 0.00 | 0.00 | 77 | 1019.9 |
| 20260506212030 | 69 | 255 | 6.0 | 7.0 | 0.00 | 0.00 | 0.00 | 73 | 1019.8 |
| 20260506211526 | 68 | 266 | 3.0 | 7.0 | 0.00 | 0.00 | 0.00 | 74 | 1019.8 |
| 20260506211024 | 68 | 251 | 2.0 | 10.0 | 0.00 | 0.00 | 0.00 | 76 | 1019.8 |
| 20260506210520 | 69 | 276 | 3.0 | 8.0 | 0.00 | 0.00 | 0.00 | 78 | 1020.1 |
| 20260506210017 | 68 | 253 | 1.0 | 12.0 | 0.00 | 0.00 | 0.00 | 77 | 1020.0 |
| 20260506205513 | 68 | 267 | 2.0 | 4.0 | 0.00 | 0.00 | 0.00 | 73 | 1019.9 |
| 20260506205009 | 68 | 262 | 3.0 | 4.0 | 0.00 | 0.00 | 0.00 | 74 | 1020.1 |
| 20260506204508 | 68 | 242 | 2.0 | 4.0 | 0.00 | 0.00 | 0.00 | 75 | 1020.1 |
| 20260506204004 | 68 | 289 | 5.0 | 7.0 | 0.00 | 0.00 | 0.00 | 74 | 1020.2 |
| 20260506203502 | 67 | 261 | 1.0 | 4.0 | 0.00 | 0.00 | 0.00 | 79 | 1020.1 |
| 20260506202958 | 67 | 263 | 4.0 | 7.0 | 0.00 | 0.00 | 0.00 | 78 | 1020.3 |
| 20260506202456 | 68 | 258 | 3.0 | 5.0 | 0.00 | 0.00 | 0.00 | 76 | 1020.1 |
| 20260506201946 | 66 | 253 | 1.0 | 4.0 | 0.00 | 0.00 | 0.00 | 79 | 1020.2 |
| 20260506201444 | 67 | 251 | 4.0 | 8.0 | 0.00 | 0.00 | 0.00 | 78 | 1020.2 |
| 20260506200940 | 67 | 259 | 2.0 | 7.0 | 0.00 | 0.00 | 0.00 | 78 | 1020.3 |
| 20260506200436 | 67 | 244 | 2.0 | 7.0 | 0.00 | 0.00 | 0.00 | 79 | 1020.3 |
| 20260506195933 | 67 | 264 | 6.0 | 10.0 | 0.00 | 0.00 | 0.00 | 79 | 1020.4 |
| 20260506195430 | 67 | 232 | 5.0 | 8.0 | 0.00 | 0.00 | 0.00 | 78 | 1020.3 |
| 20260506194927 | 68 | 261 | 5.0 | 8.0 | 0.00 | 0.00 | 0.00 | 76 | 1020.3 |
| 20260506194424 | 66 | 269 | 5.0 | 8.0 | 0.00 | 0.00 | 0.00 | 78 | 1020.4 |
| 20260506193920 | 67 | 261 | 3.0 | 7.0 | 0.00 | 0.00 | 0.00 | 79 | 1020.4 |
| 20260506193418 | 68 | 264 | 0.0 | 3.0 | 0.00 | 0.00 | 0.00 | 81 | 1020.5 |
| 20260506192914 | 66 | 265 | 5.0 | 7.0 | 0.00 | 0.00 | 0.00 | 79 | 1020.6 |
| 20260506192411 | 67 | 263 | 1.0 | 3.0 | 0.00 | 0.00 | 0.00 | 79 | 1020.6 |
| 20260506191908 | 69 | 235 | 2.0 | 3.0 | 0.00 | 0.00 | 0.00 | 74 | 1020.5 |
| 20260506191404 | 69 | 232 | 3.0 | 3.0 | 0.00 | 0.00 | 0.00 | 71 | 1020.6 |
| 20260506190901 | 69 | 229 | 0.0 | 1.0 | 0.00 | 0.00 | 0.00 | 72 | 1020.7 |
| 20260506190357 | 69 | 228 | 0.0 | 5.0 | 0.00 | 0.00 | 0.00 | 71 | 1020.7 |
| 20260506185855 | 68 | 188 | 0.0 | 1.0 | 0.00 | 0.00 | 0.00 | 71 | 1020.7 |
| 20260506185352 | 68 | 214 | 1.0 | 5.0 | 0.00 | 0.00 | 0.00 | 73 | 1020.8 |
| 20260506184848 | 68 | 231 | 2.0 | 3.0 | 0.00 | 0.00 | 0.00 | 73 | 1020.7 |
| 20260506184345 | 68 | 231 | 3.0 | 4.0 | 0.00 | 0.00 | 0.00 | 75 | 1020.7 |
| 20260506183843 | 68 | 235 | 1.0 | 3.0 | 0.00 | 0.00 | 0.00 | 72 | 1020.7 |
| 20260506183338 | 67 | 232 | 0.0 | 4.0 | 0.00 | 0.00 | 0.00 | 74 | 1020.8 |
| 20260506182836 | 67 | 235 | 4.0 | 5.0 | 0.00 | 0.00 | 0.00 | 74 | 1020.7 |
| 20260506182333 | 66 | 214 | 1.0 | 3.0 | 0.00 | 0.00 | 0.00 | 78 | 1020.8 |
| 20260506181830 | 66 | 240 | 3.0 | 5.0 | 0.00 | 0.00 | 0.00 | 78 | 1020.8 |
| 20260506181328 | 66 | 240 | 0.0 | 1.0 | 0.00 | 0.00 | 0.00 | 78 | 1020.8 |
| 20260506180825 | 66 | 233 | 0.0 | 1.0 | 0.00 | 0.00 | 0.00 | 76 | 1020.7 |
| 20260506180321 | 65 | 240 | 1.0 | 4.0 | 0.00 | 0.00 | 0.00 | 78 | 1020.7 |
| 20260506175817 | 65 | 247 | 5.0 | 8.0 | 0.00 | 0.00 | 0.00 | 79 | 1020.7 |
| 20260506175314 | 66 | 241 | 3.0 | 5.0 | 0.00 | 0.00 | 0.00 | 78 | 1020.7 |
| 20260506174812 | 66 | 235 | 1.0 | 1.0 | 0.00 | 0.00 | 0.00 | 78 | 1020.7 |
| 20260506174309 | 63 | 233 | 2.0 | 3.0 | 0.00 | 0.00 | 0.00 | 81 | 1020.7 |
| 20260506173806 | 63 | 236 | 1.0 | 4.0 | 0.00 | 0.00 | 0.00 | 80 | 1020.6 |
| 20260506173303 | 63 | 242 | 1.0 | 3.0 | 0.00 | 0.00 | 0.00 | 81 | 1020.7 |
| 20260506172800 | 63 | 235 | 3.0 | 5.0 | 0.00 | 0.00 | 0.00 | 82 | 1020.7 |
| 20260506172256 | 63 | 243 | 3.0 | 4.0 | 0.00 | 0.00 | 0.00 | 82 | 1020.7 |
| 20260506171754 | 63 | 233 | 0.0 | 1.0 | 0.00 | 0.00 | 0.00 | 80 | 1020.7 |
| 20260506171251 | 63 | 239 | 2.0 | 3.0 | 0.00 | 0.00 | 0.00 | 81 | 1020.7 |
| 20260506170749 | 62 | 239 | 3.0 | 4.0 | 0.00 | 0.00 | 0.00 | 83 | 1020.8 |
| 20260506170245 | 61 | 239 | 3.0 | 4.0 | 0.00 | 0.00 | 0.00 | 84 | 1020.9 |
| 20260506165743 | 62 | 245 | 4.0 | 7.0 | 0.00 | 0.00 | 0.00 | 84 | 1020.8 |
| 20260506165240 | 61 | 238 | 1.0 | 4.0 | 0.00 | 0.00 | 0.00 | 84 | 1020.8 |
| 20260506164737 | 61 | 236 | 2.0 | 4.0 | 0.00 | 0.00 | 0.00 | 84 | 1020.8 |
| 20260506164234 | 61 | 236 | 0.0 | 1.0 | 0.00 | 0.00 | 0.00 | 83 | 1020.9 |
| 20260506163731 | 59 | 236 | 2.0 | 3.0 | 0.00 | 0.00 | 0.00 | 86 | 1020.8 |
| 20260506163226 | 60 | 239 | 4.0 | 4.0 | 0.00 | 0.00 | 0.00 | 85 | 1020.8 |
| 20260506162722 | 59 | 233 | 0.0 | 1.0 | 0.00 | 0.00 | 0.00 | 88 | 1020.8 |
| 20260506162220 | 58 | 236 | 1.0 | 3.0 | 0.00 | 0.00 | 0.00 | 89 | 1020.8 |
| 20260506161717 | 58 | 240 | 2.0 | 4.0 | 0.00 | 0.00 | 0.00 | 88 | 1020.7 |
| 20260506161214 | 58 | 238 | 1.0 | 4.0 | 0.00 | 0.00 | 0.00 | 89 | 1020.8 |
| 20260506160712 | 58 | 237 | 0.0 | 3.0 | 0.00 | 0.00 | 0.00 | 89 | 1020.7 |
| 20260506160208 | 58 | 233 | 1.0 | 3.0 | 0.00 | 0.00 | 0.00 | 89 | 1020.7 |
| 20260506155706 | 58 | 238 | 0.0 | 1.0 | 0.00 | 0.00 | 0.00 | 89 | 1020.7 |
| 20260506155203 | 58 | 234 | 0.0 | 0.0 | 0.00 | 0.00 | 0.00 | 91 | 1020.7 |
| 20260506153305 | 56 | 240 | 1.0 | 3.0 | 0.00 | 0.00 | 0.00 | 92 | 1020.6 |
| 20260506152802 | 56 | 240 | 0.0 | 0.0 | 0.00 | 0.00 | 0.00 | 93 | 1020.6 |
| 20260506152259 | 56 | 240 | 0.0 | 0.0 | 0.00 | 0.00 | 0.00 | 93 | 1020.6 |
| 20260506151758 | 55 | 239 | 0.0 | 0.0 | 0.00 | 0.00 | 0.00 | 94 | 1020.5 |
| 20260506151254 | 55 | 239 | 0.0 | 0.0 | 0.00 | 0.00 | 0.00 | 94 | 1020.6 |
| 20260506150751 | 55 | 240 | 0.0 | 0.0 | 0.00 | 0.00 | 0.00 | 94 | 1020.5 |
| 20260506150248 | 55 | 240 | 0.0 | 0.0 | 0.00 | 0.00 | 0.00 | 94 | 1020.6 |
| 20260506145745 | 55 | 239 | 0.0 | 0.0 | 0.00 | 0.00 | 0.00 | 95 | 1020.5 |
| 20260506145241 | 54 | 239 | 0.0 | 0.0 | 0.00 | 0.00 | 0.00 | 95 | 1020.5 |
| 20260506144739 | 54 | 240 | 0.0 | 0.0 | 0.00 | 0.00 | 0.00 | 95 | 1020.6 |
| 20260506144236 | 54 | 242 | 0.0 | 0.0 | 0.00 | 0.00 | 0.00 | 96 | 1020.5 |
| 20260506143733 | 54 | 242 | 0.0 | 0.0 | 0.00 | 0.00 | 0.00 | 96 | 1020.4 |
| 20260506143231 | 54 | 242 | 0.0 | 0.0 | 0.00 | 0.00 | 0.00 | 96 | 1020.4 |
| 20260506142729 | 54 | 242 | 0.0 | 0.0 | 0.00 | 0.00 | 0.00 | 96 | 1020.4 |
| 20260506142227 | 54 | 242 | 0.0 | 0.0 | 0.00 | 0.00 | 0.00 | 96 | 1020.5 |
| 20260506141725 | 54 | 242 | 0.0 | 0.0 | 0.00 | 0.00 | 0.00 | 97 | 1020.3 |
| 20260506141223 | 54 | 242 | 0.0 | 0.0 | 0.00 | 0.00 | 0.00 | 97 | 1020.4 |
| 20260506140720 | 53 | 242 | 0.0 | 0.0 | 0.00 | 0.00 | 0.00 | 97 | 1020.2 |
| 20260506140217 | 53 | 242 | 0.0 | 0.0 | 0.00 | 0.00 | 0.00 | 98 | 1020.1 |
| 20260506135713 | 53 | 242 | 0.0 | 0.0 | 0.00 | 0.00 | 0.00 | 98 | 1020.1 |
| 20260506135210 | 53 | 242 | 0.0 | 0.0 | 0.00 | 0.00 | 0.00 | 98 | 1020.1 |
| 20260506134707 | 53 | 242 | 0.0 | 0.0 | 0.00 | 0.00 | 0.00 | 98 | 1020.1 |
| 20260506134203 | 53 | 242 | 0.0 | 0.0 | 0.00 | 0.00 | 0.00 | 98 | 1020.1 |
| 20260506133700 | 53 | 242 | 0.0 | 0.0 | 0.00 | 0.00 | 0.00 | 98 | 1020.2 |
| 20260506133157 | 53 | 242 | 0.0 | 0.0 | 0.00 | 0.00 | 0.00 | 98 | 1020.1 |
| 20260506132654 | 53 | 242 | 0.0 | 0.0 | 0.00 | 0.00 | 0.00 | 98 | 1020.2 |
| 20260506132151 | 53 | 242 | 0.0 | 0.0 | 0.00 | 0.00 | 0.00 | 98 | 1020.0 |
| 20260506131649 | 53 | 241 | 0.0 | 0.0 | 0.00 | 0.00 | 0.00 | 98 | 1020.0 |
| 20260506131145 | 53 | 241 | 0.0 | 0.0 | 0.00 | 0.00 | 0.00 | 98 | 1020.0 |
| 20260506130641 | 53 | 242 | 0.0 | 0.0 | 0.00 | 0.00 | 0.00 | 98 | 1019.9 |
| 20260506130139 | 53 | 242 | 0.0 | 0.0 | 0.00 | 0.00 | 0.00 | 98 | 1020.1 |
| 20260506125637 | 53 | 242 | 0.0 | 0.0 | 0.00 | 0.00 | 0.00 | 98 | 1019.9 |
| 20260506125134 | 53 | 242 | 0.0 | 0.0 | 0.00 | 0.00 | 0.00 | 98 | 1019.8 |
| 20260506124632 | 53 | 242 | 0.0 | 0.0 | 0.00 | 0.00 | 0.00 | 98 | 1019.9 |
| 20260506124130 | 53 | 243 | 0.0 | 0.0 | 0.00 | 0.00 | 0.00 | 98 | 1019.9 |
| 20260506123627 | 53 | 243 | 0.0 | 0.0 | 0.00 | 0.00 | 0.00 | 98 | 1019.8 |
| 20260506123126 | 53 | 244 | 0.0 | 0.0 | 0.00 | 0.00 | 0.00 | 98 | 1019.9 |
| 20260506122622 | 53 | 244 | 0.0 | 0.0 | 0.00 | 0.00 | 0.00 | 98 | 1019.8 |
| 20260506122120 | 53 | 244 | 0.0 | 0.0 | 0.00 | 0.00 | 0.00 | 97 | 1019.7 |
| 20260506121617 | 53 | 244 | 0.0 | 0.0 | 0.00 | 0.00 | 0.00 | 98 | 1019.7 |
| 20260506121114 | 53 | 244 | 0.0 | 0.0 | 0.00 | 0.00 | 0.00 | 98 | 1019.7 |
| 20260506120612 | 53 | 244 | 0.0 | 0.0 | 0.00 | 0.00 | 0.00 | 98 | 1019.6 |
| 20260506120109 | 53 | 244 | 0.0 | 0.0 | 0.00 | 0.00 | 0.00 | 98 | 1019.6 |
| 20260506115607 | 53 | 244 | 0.0 | 0.0 | 0.00 | 0.00 | 0.00 | 98 | 1019.6 |
| 20260506115105 | 53 | 244 | 0.0 | 0.0 | 0.00 | 0.00 | 0.00 | 98 | 1019.6 |
| 20260506114602 | 53 | 244 | 0.0 | 0.0 | 0.00 | 0.00 | 0.00 | 98 | 1019.5 |
| 20260506114100 | 53 | 244 | 0.0 | 0.0 | 0.00 | 0.00 | 0.00 | 98 | 1019.5 |
| 20260506113558 | 53 | 244 | 0.0 | 0.0 | 0.00 | 0.00 | 0.00 | 98 | 1019.5 |
| 20260506113055 | 53 | 244 | 0.0 | 0.0 | 0.00 | 0.00 | 0.00 | 98 | 1019.5 |
| 20260506112551 | 53 | 244 | 0.0 | 0.0 | 0.00 | 0.00 | 0.00 | 98 | 1019.5 |
| 20260506112049 | 53 | 244 | 0.0 | 0.0 | 0.00 | 0.00 | 0.00 | 98 | 1019.4 |
| 20260506111547 | 53 | 244 | 0.0 | 0.0 | 0.00 | 0.00 | 0.00 | 98 | 1019.5 |
| 20260506111044 | 53 | 244 | 0.0 | 0.0 | 0.00 | 0.00 | 0.00 | 97 | 1019.5 |
| 20260506110541 | 53 | 244 | 0.0 | 0.0 | 0.00 | 0.00 | 0.00 | 98 | 1019.4 |
| 20260506110038 | 53 | 244 | 0.0 | 0.0 | 0.00 | 0.00 | 0.00 | 98 | 1019.4 |
| 20260506105534 | 53 | 244 | 0.0 | 0.0 | 0.00 | 0.00 | 0.00 | 98 | 1019.5 |
| 20260506105032 | 53 | 244 | 0.0 | 0.0 | 0.00 | 0.00 | 0.00 | 98 | 1019.4 |
| 20260506104530 | 53 | 244 | 0.0 | 0.0 | 0.00 | 0.00 | 0.00 | 98 | 1019.3 |
| 20260506104027 | 53 | 244 | 0.0 | 0.0 | 0.00 | 0.00 | 0.00 | 98 | 1019.3 |
| 20260506103524 | 53 | 244 | 0.0 | 0.0 | 0.00 | 0.00 | 0.00 | 98 | 1019.2 |
| 20260506103021 | 53 | 244 | 0.0 | 0.0 | 0.00 | 0.00 | 0.00 | 98 | 1019.2 |
| 20260506102520 | 53 | 244 | 0.0 | 0.0 | 0.00 | 0.00 | 0.00 | 97 | 1019.2 |
| 20260506102017 | 53 | 243 | 0.0 | 0.0 | 0.00 | 0.00 | 0.00 | 97 | 1019.2 |
| 20260506101513 | 53 | 255 | 0.0 | 0.0 | 0.00 | 0.00 | 0.00 | 97 | 1019.2 |
| 20260506101010 | 53 | 254 | 0.0 | 0.0 | 0.00 | 0.00 | 0.00 | 97 | 1019.3 |
| 20260506100508 | 53 | 236 | 0.0 | 0.0 | 0.00 | 0.00 | 0.00 | 97 | 1019.1 |
| 20260506100007 | 53 | 256 | 0.0 | 0.0 | 0.00 | 0.00 | 0.00 | 97 | 1019.0 |
| 20260506095505 | 53 | 256 | 0.0 | 0.0 | 0.00 | 0.00 | 0.00 | 97 | 1019.0 |
| 20260506095000 | 53 | 246 | 0.0 | 0.0 | 0.00 | 0.00 | 0.00 | 97 | 1019.1 |
| 20260506094459 | 53 | 246 | 0.0 | 0.0 | 0.00 | 0.00 | 0.00 | 97 | 1019.0 |
| 20260506093956 | 53 | 246 | 0.0 | 0.0 | 0.00 | 0.00 | 0.00 | 97 | 1019.0 |
| 20260506093454 | 53 | 246 | 0.0 | 0.0 | 0.00 | 0.00 | 0.00 | 96 | 1019.1 |
| 20260506092951 | 53 | 246 | 0.0 | 0.0 | 0.00 | 0.00 | 0.00 | 96 | 1019.0 |
| 20260506092449 | 53 | 246 | 0.0 | 0.0 | 0.00 | 0.00 | 0.00 | 96 | 1019.1 |
| 20260506091945 | 53 | 246 | 0.0 | 0.0 | 0.00 | 0.00 | 0.00 | 97 | 1019.1 |
| 20260506091444 | 53 | 246 | 0.0 | 0.0 | 0.00 | 0.00 | 0.00 | 96 | 1019.2 |
| 20260506090941 | 53 | 252 | 0.0 | 0.0 | 0.00 | 0.00 | 0.00 | 96 | 1019.1 |